This is the latest recevied weather packets stored in our database for station/object KC9DRE. If no packets are shown the sender has not sent any weather packets the latest 10 day(s).
| Time | Temp. | Humidity | Pressure | Rain* | Wind** | Luminosity | Snow |
|---|---|---|---|---|---|---|---|
| 1777076569 | 16.67° C | 95% | 1010 hPa | 0 mm | - | 1 W/m² | - |
| 1777076265 | 16.67° C | 94% | 1009.9 hPa | 0 mm | - | 1 W/m² | - |
| 1777075960 | 16.67° C | 94% | 1009.6 hPa | 0 mm | - | 2 W/m² | - |
| 1777075656 | 16.67° C | 94% | 1009.7 hPa | 0 mm | - | 3 W/m² | - |
| 1777075352 | 16.67° C | 93% | 1009.4 hPa | 0 mm | - | 4 W/m² | - |
| 1777075049 | 16.67° C | 93% | 1009.7 hPa | 0 mm | - | 3 W/m² | - |
| 1777074744 | 16.67° C | 92% | 1009.7 hPa | 0 mm | - | 2 W/m² | - |
| 1777074440 | 16.67° C | 91% | 1009.2 hPa | 0 mm | - | 2 W/m² | - |
| 1777074137 | 17.22° C | 91% | 1009.7 hPa | 0 mm | - | 2 W/m² | - |
| 1777073833 | 17.22° C | 89% | 1009.3 hPa | 0 mm | - | 4 W/m² | - |
| 1777073528 | 17.78° C | 87% | 1009.4 hPa | 0 mm | - | 4 W/m² | - |
| 1777073224 | 18.33° C | 84% | 1009.3 hPa | 0 mm | - | 3 W/m² | - |
| 1777072920 | 18.89° C | 80% | 1009.2 hPa | 0 mm | - | 5 W/m² | - |
| 1777072615 | 20° C | 79% | 1009.3 hPa | 0 mm | - | 5 W/m² | - |
| 1777072310 | 20.56° C | 76% | 1009 hPa | 0 mm | - | 3 W/m² | - |
| 1777072004 | 22.22° C | 70% | 1009 hPa | 0 mm | - | 2 W/m² | - |
| 1777071700 | 23.33° C | 60% | 1008.3 hPa | 0 mm | - | 7 W/m² | - |
| 1777071397 | 23.33° C | 59% | 1008 hPa | 0 mm | - | 10 W/m² | - |
| 1777071092 | 23.33° C | 58% | 1008 hPa | 0 mm | - | 14 W/m² | - |
| 1777070788 | 23.89° C | 58% | 1007.7 hPa | 0 mm | - | 21 W/m² | - |
| 1777070486 | 23.89° C | 57% | 1007.6 hPa | 0 mm | - | 26 W/m² | - |
| 1777070184 | 24.44° C | 56% | 1007.7 hPa | 0 mm | - | 43 W/m² | - |
| 1777069880 | 24.44° C | 56% | 1007.5 hPa | 0 mm | - | 90 W/m² | - |
| 1777069579 | 24.44° C | 55% | 1007.5 hPa | 0 mm | - | 115 W/m² | - |
| 1777069275 | 25° C | 54% | 1007.4 hPa | 0 mm | - | 172 W/m² | - |
* Rain latest hour (hover to see other rain measurements)
** Current wind speed in m/s (hover to see current wind gust speed)